Vertical_Velocity
-0 -0 -0 -0 -0 -0 -0 -1 -1 -1 -1 -1 -1 -1 -1 -1 -0 -0 -0 -0 0 0 0 0 0 0 0 1 1 1 1 1 1 1 1 1 1 0 0 0 0 0 0 -0 -0 -0 -0 -1 -1 -1 -0 -0 -0 -0 -0 -1 -1 -1 -1 -1 -1 -1 -1 -1 -1 -0 -0 -0 -0 -1 -1 -1 -1 -1 -1 -1 -1 -1 -1 -1 -1 -1 -0 -0 -0 -0 -0 -0 -0 -0 -1 -1 -1 -1 -1 -1 -1 -1 -1 -1 -1 -1 -1
-0 -0 -0 -0 -0 -0 -0 -0 -1 -1 -1 -1 -1 -1 -1 -1 -1 -1 -1 -0 -0 -0 0 0 -0 -0 -0 0 0 1 1 1 1 1 1 1 1 1 0 0 0 0 0 0 0 -0 -0 -0 -1 -1 -0 -0 -0 -0 -0 -0 -0 -1 -1 -1 -1 -1 -1 -1 -1 -1 -1 -1 -1 -1 -1 -1 -1 -1 -1 -1 -1 -1 -1 -1 -1 -1 -1 -1 -0 -0 -0 -0 -0 -0 -0 -0 -0 -0 -0 -1 -1 -1 -1 -1 -1 -1 -1
-0 -0 -0 -0 -0 -0 -0 -1 -1 -1 -1 -1 -1 -1 -1 -1 -1 -1 -1 -1 -1 -1 -0 -0 -0 -0 -0 -0 -0 -0 0 0 0 1 1 1 1 1 0 0 0 0 0 0 0 0 0 -0 -0 -0 -0 -0 -0 -0 -0 -0 -0 -0 -0 -1 -1 -1 -1 -1 -1 -1 -1 -1 -1 -1 -1 -1 -1 -1 -1 -1 -1 -1 -1 -1 -1 -1 -1 -1 -1 -1 -0 -1 -0 -0 -0 -0 -0 -0 -0 -0 -0 -1 -1 -1 -1 -1 -1
-0 -0 -0 -0 -0 -0 -0 -1 -1 -1 -1 -1 -1 -1 -1 -1 -1 -1 -1 -1 -1 -1 -1 -1 -1 -1 -1 -1 -1 -0 -0 -0 -0 -0 0 0 0 1 1 0 0 0 0 0 0 0 0 -0 -0 -0 -0 -0 -0 -0 -0 -0 -0 -0 -0 -0 -0 -1 -1 -1 -1 -1 -1 -1 -1 -1 -1 -1 -1 -1 -1 -1 -1 -1 -1 -1 -1 -1 -1 -1 -1 -1 -1 -1 -1 -1 -1 -1 -0 -0 -0 -0 -0 -1 -1 -0 -1 -1 -1
-1 -0 -0 -0 -0 -0 -0 -0 -1 -1 -1 -1 -1 -1 -2 -2 -2 -1 -1 -1 -1 -1 -1 -1 -1 -1 -1 -1 -1 -1 -1 -1 -1 -0 -0 -0 -0 0 0 0 0 0 0 0 0 0 0 0 -0 -0 -0 -0 -0 -0 -0 -0 -0 -0 -0 0 -0 -0 -0 -0 -1 -1 -1 -1 -1 -1 -1 -1 -1 -1 -1 -1 -2 -1 -1 -1 -1 -1 -1 -1 -1 -1 -1 -1 -1 -1 -1 -1 -1 -1 -1 -1 -1 -1 -1 -0 -0 -0 -1
-1 -1 -1 -1 -1 -0 -0 -0 -1 -1 -1 -1 -1 -1 -2 -2 -2 -2 -2 -2 -2 -1 -1 -1 -1 -1 -1 -1 -1 -1 -1 -1 -1 -1 -1 -1 -0 -0 -0 0 0 0 0 0 0 0 0 0 0 -0 -0 -0 -0 -0 -0 -0 -0 -0 -0 0 0 -0 -0 -0 -0 -0 -0 -0 -0 -0 -0 -1 -1 -1 -1 -1 -1 -2 -2 -2 -1 -1 -1 -1 -1 -1 -1 -1 -1 -1 -1 -1 -1 -1 -1 -1 -1 -1 -1 -1 -1 -0 -0
-1 -1 -1 -1 -1 -1 -1 -0 -1 -1 -1 -1 -1 -1 -1 -2 -2 -2 -2 -2 -2 -2 -1 -1 -1 -1 -1 -1 -1 -1 -1 -1 -1 -1 -1 -1 -1 -1 -1 -0 -0 0 0 0 1 1 1 0 0 0 0 -0 -0 -0 -0 -0 -0 -0 -0 -0 -0 -0 -0 -0 -0 -0 -0 -0 -0 -0 -0 -0 -0 -0 -1 -1 -1 -1 -1 -2 -2 -1 -1 -1 -1 -1 -1 -1 -1 -1 -1 -1 -1 -1 -1 -1 -1 -1 -1 -1 -1 -1 -1
-1 -1 -1 -1 -1 -1 -1 -1 -1 -1 -1 -1 -1 -1 -1 -1 -1 -2 -2 -2 -2 -2 -2 -1 -1 -1 -1 -1 -1 -1 -1 -1 -1 -1 -1 -1 -1 -1 -1 -1 -1 -0 -0 0 0 0 1 1 1 1 0 0 0 0 0 0 0 -0 -0 -0 -0 -0 -0 -0 -0 -0 -0 -0 -0 -0 -0 -0 -0 -0 -0 -0 -1 -1 -1 -1 -1 -2 -2 -1 -1 -1 -1 -1 -1 -2 -2 -2 -1 -1 -1 -1 -1 -1 -1 -1 -1 -1 -1
-1 -1 -1 -1 -1 -1 -1 -1 -1 -1 -1 -1 -1 -1 -1 -1 -1 -1 -1 -1 -2 -2 -2 -1 -1 -1 -1 -1 -1 -1 -1 -1 -1 -1 -1 -1 -1 -1 -1 -1 -1 -1 -1 -0 -0 -0 0 0 0 1 1 1 0 0 0 0 0 0 0 0 0 -0 -0 -0 -0 -0 -0 -0 -0 -0 -0 -0 -0 -0 -0 -0 -0 -0 -1 -1 -1 -1 -2 -2 -2 -1 -1 -1 -1 -2 -2 -2 -2 -2 -1 -1 -1 -1 -1 -1 -1 -1 -1
-1 -1 -1 -1 -1 -1 -1 -1 -1 -1 -1 -1 -1 -1 -1 -1 -1 -1 -1 -1 -2 -2 -2 -2 -2 -1 -1 -1 -1 -1 -1 -1 -1 -1 -1 -1 -1 -1 -1 -1 -1 -1 -1 -1 -1 -1 -0 -0 -0 -0 0 0 0 0 0 0 0 0 0 0 0 0 0 -0 -0 -0 -0 -0 -0 -0 -0 -0 -0 -0 -0 -0 -0 -0 -0 -1 -1 -1 -1 -1 -2 -2 -1 -1 -1 -1 -2 -2 -2 -2 -2 -2 -2 -2 -1 -1 -2 -2 -2
-1 -1 -1 -1 -1 -1 -1 -1 -1 -1 -1 -1 -1 -1 -1 -1 -1 -1 -1 -1 -1 -2 -2 -2 -2 -2 -2 -2 -2 -1 -1 -1 -1 -1 -1 -1 -1 -1 -1 -1 -1 -1 -1 -1 -1 -1 -1 -1 -1 -1 -0 -0 -0 -0 -0 -0 -0 -0 -0 -0 -0 0 0 -0 -0 -0 -0 -0 -0 -0 -0 -0 -0 -0 -0 -0 -0 -0 -0 -0 -0 -0 -1 -1 -1 -1 -1 -1 -1 -1 -1 -2 -2 -2 -2 -2 -2 -2 -2 -2 -2 -2 -2
-0 -0 -1 -1 -1 -1 -1 -1 -1 -1 -1 -1 -1 -1 -1 -1 -1 -1 -1 -1 -1 -1 -2 -2 -2 -2 -2 -2 -2 -2 -2 -1 -1 -1 -1 -1 -1 -1 -1 -1 -1 -1 -1 -1 -1 -1 -1 -1 -1 -1 -1 -1 -1 -1 -1 -0 -0 -0 -0 -0 -0 -0 -0 -0 -0 -0 -0 -0 -0 -0 -0 -0 -0 -0 -0 -0 -0 -0 -0 -0 -0 -0 -0 -1 -1 -1 -1 -1 -1 -1 -1 -1 -1 -2 -2 -2 -2 -2 -2 -2 -2 -2 -2
-0 -0 -0 -0 -1 -1 -1 -1 -1 -1 -1 -1 -1 -1 -1 -1 -1 -1 -1 -1 -1 -1 -1 -1 -1 -1 -1 -2 -2 -2 -2 -1 -1 -1 -1 -1 -1 -1 -1 -1 -1 -1 -1 -1 -1 -1 -1 -1 -1 -1 -1 -1 -1 -1 -1 -1 -1 -1 -1 -1 -1 -1 -1 -1 -0 -0 -0 -0 -0 -0 -0 -0 -0 -0 -0 -0 -0 -0 -0 -0 -0 -0 -0 -0 -0 -1 -1 -1 -1 -1 -1 -1 -1 -1 -1 -2 -2 -2 -2 -2 -2 -2 -2
-0 -0 -0 -1 -1 -0 -0 -0 -0 -1 -1 -1 -1 -1 -1 -1 -1 -1 -1 -1 -1 -1 -1 -1 -1 -1 -1 -1 -2 -2 -2 -2 -1 -1 -1 -1 -1 -1 -1 -1 -1 -1 -1 -1 -1 -1 -1 -1 -1 -1 -1 -1 -1 -1 -1 -1 -1 -1 -1 -1 -1 -1 -1 -1 -1 -1 -1 -1 -1 -1 -0 -0 -0 -0 -0 -0 -0 -0 -0 -0 -0 -0 -0 -0 -0 -0 -1 -1 -1 -1 -1 -1 -1 -1 -1 -1 -1 -2 -2 -2 -1 -1 -1
-1 -0 -1 -1 -1 -1 -0 -0 -0 -0 -0 -0 -0 -0 -0 -1 -1 -1 -1 -1 -1 -1 -1 -1 -1 -1 -1 -1 -1 -1 -2 -2 -2 -1 -1 -1 -1 -1 -1 -1 -2 -2 -2 -1 -1 -1 -1 -1 -1 -1 -1 -1 -1 -1 -1 -1 -1 -1 -1 -1 -1 -1 -1 -1 -1 -1 -1 -1 -1 -1 -1 -1 -1 -1 -1 -1 -1 -0 -0 -0 -0 -0 -0 -0 -0 -0 -0 -0 -1 -1 -1 -1 -1 -1 -0 -1 -1 -1 -1 -1 -1 -1 -1
-1 -1 -1 -1 -1 -1 -1 -1 -1 -0 -0 -0 -0 -0 -0 -0 -0 -0 -0 -1 -1 -1 -1 -1 -1 -1 -1 -1 -1 -1 -1 -1 -1 -1 -1 -1 -1 -1 -1 -1 -1 -2 -2 -2 -2 -2 -1 -1 -1 -1 -1 -1 -1 -1 -1 -1 -1 -1 -1 -1 -1 -1 -1 -1 -1 -1 -1 -1 -1 -1 -1 -1 -1 -1 -1 -1 -1 -0 -0 -0 -0 -0 -0 -0 -0 -0 -0 -0 -0 -0 -0 -0 -0 -0 -0 -0 -0 -0 -0 -1 -1 -1 -1
-1 -1 -1 -1 -1 -1 -1 -1 -1 -1 -0 -0 -0 -0 -0 -0 -0 -0 -0 -0 -0 -1 -1 -1 -1 -1 -1 -1 -0 -1 -1 -1 -1 -1 -1 -1 -1 -1 -0 -1 -1 -1 -1 -1 -2 -2 -2 -2 -1 -1 -1 -1 -1 -1 -1 -1 -1 -1 -1 -1 -1 -1 -1 -1 -1 -1 -1 -1 -1 -1 -1 -1 -1 -1 -1 -0 -0 -0 -0 -0 -0 -0 -0 0 0 0 0 0 0 0 0 -0 -0 -0 -0 -0 0 0 -0 -0 -0 -0 -1
-1 -1 -2 -1 -1 -1 -1 -1 -1 -1 -1 -1 -1 -1 -1 -0 -0 -0 -0 -0 -0 -1 -1 -1 -1 -1 -1 -1 -0 -0 -0 -0 -0 -0 -1 -1 -1 -1 -0 -0 -0 -0 -1 -1 -1 -1 -1 -1 -1 -2 -1 -1 -1 -1 -1 -1 -1 -1 -1 -1 -1 -1 -1 -1 -1 -1 -1 -1 -1 -1 -1 -1 -1 -1 -1 -0 -0 -0 -0 -0 -0 -0 -0 0 0 0 0 0 0 1 1 0 0 0 0 0 0 0 0 0 -0 -0 -0
-0 -0 -2 -2 -2 -1 -1 -1 -1 -1 -1 -1 -1 -1 -1 -1 -1 -0 -0 -0 -0 -1 -1 -1 -1 -1 -1 -1 -0 -0 -0 -0 -0 -0 -0 -0 -0 -0 -0 -0 -0 -0 -0 -0 -0 -0 -1 -1 -1 -1 -1 -1 -1 -1 -1 -1 -1 -1 -1 -1 -1 -1 -1 -1 -1 -1 -1 -1 -1 -1 -1 -1 -1 -1 -1 -1 -1 -1 -0 -0 -0 -0 -0 -0 -0 0 0 0 0 1 1 1 0 0 0 0 0 0 0 0 0 0 -0
-1 -0 -1 -1 -2 -2 -1 -1 -1 -1 -1 -1 -1 -1 -1 -1 -1 -1 -1 -0 -0 -0 -1 -1 -1 -1 -1 -1 -1 -1 -0 -0 -0 -0 -0 -0 -0 -0 -0 -0 -0 0 0 -0 0 -0 -0 -0 -0 -1 -1 -1 -1 -0 -0 -0 -0 -0 -0 -0 -0 -0 -0 -0 -0 -0 -0 -1 -1 -1 -1 -1 -1 -1 -1 -1 -1 -1 -0 -0 -0 -0 -0 -0 -0 -0 -0 0 0 0 0 0 1 1 1 0 0 0 0 0 0 0 0
-2 -1 -0 -0 -1 -2 -2 -2 -1 -1 -1 -1 -1 -1 -1 -1 -1 -1 -1 -1 -1 -0 -0 -1 -1 -1 -1 -1 -1 -1 -1 -1 -0 -0 -0 -0 -0 -0 -0 -0 -0 -0 -0 0 0 0 0 0 0 -0 -0 -0 -0 -0 0 0 0 -0 -0 0 0 0 0 0 0 0 -0 -0 -0 -0 -0 -0 -0 -0 -0 -1 -0 -0 -0 -0 -0 -0 -0 -0 -0 -0 0 0 0 0 0 0 1 1 1 1 1 1 1 1 1 1 0
-3 -3 -2 -1 -1 -1 -1 -2 -2 -1 -1 -1 -1 -1 -1 -0 -0 -0 -0 -1 -1 -1 -0 -0 -1 -1 -1 -1 -1 -1 -1 -1 -1 -1 -1 -0 -0 -0 -0 -0 -0 -0 -1 -0 -0 0 0 0 0 0 0 0 0 0 0 1 1 0 0 0 1 1 1 1 1 1 1 1 1 1 0 0 0 0 0 0 0 0 0 0 0 0 0 0 0 0 1 0 0 0 0 0 0 1 0 1 1 1 1 1 1 1 1
-3 -3 -2 -2 -1 -1 -0 -1 -2 -2 -1 -1 -0 -1 -2 -1 -1 -0 1 1 -0 -1 -1 -0 -0 -0 -0 -1 -1 -1 -1 -1 -1 -1 -1 -1 -0 -0 -0 -0 -0 -0 -1 -1 -0 -0 0 0 0 0 0 0 1 1 1 1 1 1 1 1 1 1 1 1 1 1 1 1 1 1 1 1 1 1 1 1 1 1 1 1 1 1 1 1 1 1 1 1 1 0 0 0 0 0 0 0 0 0 0 1 1 1 1
-2 -2 -2 -2 -2 -2 -1 -1 -1 -1 -1 -1 -0 -0 -1 -1 -2 -1 -0 1 1 1 0 0 0 0 1 0 -0 -1 -1 -0 -0 -1 -1 -1 -1 -0 -0 -0 -0 -0 -1 -1 -1 -0 -0 0 0 0 0 0 1 1 1 1 1 1 1 1 1 1 1 1 1 1 2 2 2 2 2 2 2 2 2 2 2 1 1 1 1 1 1 1 1 1 1 1 1 0 0 0 0 0 0 0 -0 -0 -0 -0 -0 0 0
-1 -1 -2 -2 -2 -2 -1 -1 -1 -1 -1 -1 -1 -0 -0 -1 -1 -2 -2 -0 0 1 1 1 1 1 1 1 0 -0 -0 -0 -0 -0 -0 -0 -0 -0 -0 0 0 -0 -0 -1 -1 -1 -0 -0 0 0 0 0 0 1 1 1 1 1 1 1 1 1 1 1 1 1 2 2 2 2 2 2 2 2 2 2 2 2 2 2 2 1 1 1 1 1 1 1 1 1 1 1 0 0 -0 -0 -0 -0 -0 -0 -0 -0 -0
-1 -1 -2 -2 -2 -2 -1 -1 -1 -1 -1 -1 -1 -1 -1 -1 -1 -1 -1 -1 -1 0 1 1 0 0 1 1 1 1 1 0 -0 -0 -0 -0 -0 -0 -0 0 0 0 -0 -0 -0 -0 -0 -1 -1 -0 0 0 0 1 1 2 2 2 1 1 1 1 1 1 1 1 1 1 2 2 2 2 2 2 2 2 2 2 2 2 2 2 2 1 1 1 1 1 1 1 1 1 0 0 0 -0 -0 -0 -0 -0 -0 -0 -0
-2 -1 -2 -2 -2 -2 -1 -1 -1 -1 -1 -1 -1 -1 -1 -1 -1 -1 -1 -1 -1 -1 -0 -0 -0 -0 -0 0 1 1 1 1 0 0 0 -0 -0 -0 -0 0 0 0 0 -0 0 1 1 -0 -0 -1 -1 -0 0 1 1 2 2 2 2 1 1 1 2 2 2 2 2 1 1 2 2 2 2 2 2 2 2 2 2 2 2 2 2 2 2 2 1 1 1 1 1 1 0 0 0 0 0 -0 -0 -0 -0 -0 -0
-1 -1 -1 -2 -2 -2 -1 -1 -1 -1 -1 -1 -1 -1 -0 -1 -2 -2 -1 -1 -1 -1 -1 -1 -1 -0 -0 -0 0 1 0 0 0 1 1 1 0 0 0 -0 -0 0 0 0 1 1 1 2 1 0 -1 -1 -1 -0 1 2 2 2 2 2 1 1 2 2 2 2 2 2 2 1 1 2 2 2 2 2 2 2 2 2 2 2 2 2 2 2 2 2 1 1 1 1 0 0 0 0 0 0 -0 -0 -0 -0 -0
-1 -1 -0 -1 -2 -2 -1 -1 -1 -0 -0 -0 -0 -1 -0 -0 -1 -2 -2 -1 -1 -1 -1 -1 -1 -1 -1 -1 -0 1 0 -0 -0 -0 1 1 1 1 1 0 -0 0 -0 -0 -0 0 1 2 3 2 1 0 -1 -1 0 1 2 3 2 2 1 1 1 1 2 3 3 3 2 2 2 2 2 2 2 2 2 2 2 2 2 2 1 1 1 1 1 1 1 1 1 1 0 0 0 0 0 0 0 -0 0 0 -0
-2 -2 -1 -1 -1 -1 -2 -1 -0 -0 -0 0 -0 -0 -0 -0 -0 -1 -1 -1 -1 -1 -1 -1 -1 -1 -2 -1 -1 0 1 1 0 -0 0 0 1 1 2 1 1 0 -0 -1 -1 -0 0 1 2 2 2 2 1 0 -0 0 2 3 3 3 2 1 0 0 1 2 2 3 3 2 2 2 2 2 2 2 2 1 1 1 1 1 1 1 1 1 1 1 1 1 1 1 0 0 0 0 0 0 0 0 -0 -0 -0
-1 -1 -1 -1 -1 -1 -1 -1 -1 -1 -0 -0 0 0 0 0 -0 -0 -0 -0 -1 -1 -1 -1 -1 -1 -1 -1 -1 -1 0 1 0 0 0 -0 -0 0 1 1 1 1 0 -0 -1 -1 -0 0 1 1 1 2 2 1 -0 -0 1 2 4 4 4 3 2 1 0 -0 1 1 2 2 2 2 1 1 1 1 1 1 1 1 1 0 0 0 0 0 0 0 0 0 1 1 0 0 0 0 0 0 0 0 0 -0 -0
1 0 -0 -0 -1 -1 -1 -1 -1 -1 -1 -0 -0 0 1 1 0 -0 -0 0 0 -0 -0 -1 -1 -1 -1 -1 -1 -1 -0 0 0 1 1 0 0 -0 0 0 0 1 1 0 -0 -1 -0 -0 0 0 0 1 1 0 0 -0 0 1 2 3 4 4 4 2 1 -0 -1 -0 1 1 2 2 1 1 1 0 0 0 1 1 0 0 0 -0 -0 -0 -0 -0 -0 -0 -0 0 -0 -0 -0 -0 0 0 -0 0 0 0 0
1 1 1 0 -0 -1 -1 -0 -1 -1 -1 -1 -1 -0 0 1 0 -0 -1 -0 1 1 1 -0 -1 -1 -0 -0 -0 -0 -0 0 0 1 1 1 1 1 0 0 0 0 1 0 0 0 -0 -0 0 0 0 -0 -0 -0 -0 -1 -1 -0 1 2 3 4 4 3 2 1 -0 -0 -0 0 1 1 1 1 1 0 -0 -0 -0 -0 -0 0 0 -0 -0 -0 -1 -1 -1 -1 -1 -0 -0 -0 -0 -0 -0 0 0 0 0 0 0
1 1 1 1 1 0 1 1 0 0 -0 -1 -1 -0 -0 1 0 -0 -0 -0 0 1 2 1 0 -0 -0 -0 -0 -0 0 0 0 0 0 1 2 2 1 1 0 0 0 0 0 0 0 0 0 1 1 0 -0 -1 -1 -1 -1 -1 -0 1 2 3 3 3 3 2 1 -0 -0 -0 -0 1 1 1 1 1 0 -0 -1 -1 -1 -0 -0 -0 -0 -0 -1 -1 -1 -1 -1 -1 -1 -1 -0 -0 -0 -0 -0 0 0 0 0
0 0 1 1 1 1 1 1 1 1 1 0 0 0 0 0 0 0 -0 -0 -0 1 1 2 1 0 0 0 0 0 1 1 0 0 0 1 2 2 2 1 1 1 1 0 1 1 0 0 1 1 2 2 1 0 -1 -1 -1 -1 -1 0 1 2 2 2 2 2 2 1 -0 -0 -0 -0 -0 0 1 1 1 0 -0 -0 -1 -1 -1 -1 -1 -1 -1 -1 -1 -1 -1 -1 -1 -1 -1 -1 -1 -1 -0 -0 -0 -0 0
0 0 0 0 0 1 1 1 2 2 1 1 1 1 0 0 1 1 1 1 0 0 0 1 1 1 1 0 0 1 1 1 0 0 1 1 1 2 2 2 2 2 2 1 1 1 1 1 1 2 2 2 2 2 1 -0 -1 -1 -1 0 1 1 1 1 2 2 2 1 0 -0 -0 -1 -1 -1 -0 -0 0 1 1 0 0 -0 -1 -1 -1 -1 -1 -1 -1 -1 -1 -1 -1 -1 -1 -1 -1 -1 -1 -0 -0 -0 -0
1 0 0 0 1 1 1 1 2 2 2 1 1 0 0 0 1 2 2 2 1 0 -0 1 1 1 1 0 1 1 2 2 1 0 0 1 1 1 2 2 2 3 2 2 2 2 2 2 1 1 1 2 2 2 1 0 -0 -1 -1 -1 -0 -0 0 1 1 2 2 1 1 0 -0 -1 -1 -1 -1 -1 -1 -0 0 0 0 0 0 -0 -0 -0 -1 -1 -1 -1 -1 -0 -0 -0 -0 -1 -1 -1 -1 -1 -1 -1 -1
1 0 0 1 1 2 2 2 2 2 2 1 0 -0 -0 -1 0 1 3 3 2 1 -0 -0 1 1 1 0 0 1 2 2 1 0 0 1 1 0 1 1 1 1 1 2 2 2 2 2 2 1 1 1 1 0 0 -0 -0 -1 -1 -2 -2 -1 -1 -0 1 1 1 1 1 1 0 -0 -0 -1 -2 -2 -2 -2 -1 -1 -0 -0 0 0 0 0 -0 -0 -0 -0 -0 -0 -1 -1 -0 -1 -1 -1 -1 -1 -1 -1 -1
1 0 -0 1 2 2 2 1 1 1 0 0 -0 -1 -0 -1 -1 0 2 2 1 1 0 -0 -0 0 1 0 -0 -0 1 1 1 0 1 1 0 -0 0 -0 -0 -1 -1 -0 0 0 0 1 1 1 1 1 0 -0 -0 -1 -1 -1 -2 -3 -3 -2 -2 -1 0 1 0 1 1 2 2 1 1 -0 -1 -2 -2 -2 -2 -2 -1 -1 -0 -0 0 0 0 0 0 0 0 -0 -0 -0 -1 -1 -1 -1 -1 -1 -1 -2 -2
0 -0 -1 -0 0 1 1 0 -0 -1 -2 -2 -2 -2 -1 -1 -1 -1 0 0 -0 -0 0 -0 -1 -1 -1 -0 -1 -1 -1 0 -0 -1 -0 -0 -0 -1 -0 -1 -1 -2 -1 -1 -1 -2 -1 -0 -0 -0 0 -0 -0 -1 -1 -0 -0 -1 -2 -3 -3 -3 -3 -2 -1 -0 -0 0 1 2 3 3 2 1 0 -1 -1 -2 -2 -2 -2 -2 -2 -1 -1 -0 0 0 0 1 0 0 0 -0 -0 -1 -1 -1 -1 -1 -1 -2 -2
-0 -0 -1 -1 -0 -0 0 -0 -1 -2 -3 -3 -3 -2 -2 -1 -1 -2 -2 -2 -2 -2 -1 -1 -1 -2 -3 -2 -2 -2 -3 -1 -1 -2 -2 -1 -2 -2 -2 -2 -2 -2 -1 -1 -2 -2 -1 -1 -1 -1 -1 -1 -1 -1 -1 0 0 -0 -1 -2 -2 -2 -3 -2 -2 -1 -1 -0 1 1 2 2 2 2 1 1 0 -0 -1 -2 -2 -2 -2 -2 -2 -1 -1 -0 0 0 0 0 0 0 -0 -0 -1 -1 -1 -1 -1 -1 -2
1 0 -0 -0 0 0 1 -0 -1 -2 -3 -3 -2 -2 -2 -1 -1 -2 -2 -3 -4 -3 -2 -1 -2 -3 -4 -3 -2 -2 -3 -2 -2 -2 -2 -2 -2 -2 -3 -3 -3 -2 -2 -1 -1 -1 -1 -0 -0 -1 -1 -1 -1 -1 -1 -0 -0 -1 -1 -2 -2 -1 -1 -2 -2 -1 -1 -1 -1 -1 -0 1 2 2 2 2 2 1 0 -0 -1 -1 -2 -2 -2 -2 -2 -1 -1 -1 -0 -0 -0 -0 -0 -0 -0 -0 -1 -1 -1 -1 -1
1 1 1 1 1 1 1 0 -0 -0 -1 -1 -1 -1 -1 -1 -1 -1 -2 -2 -3 -3 -2 -1 -1 -2 -3 -3 -3 -2 -2 -3 -2 -2 -2 -2 -2 -2 -2 -3 -4 -3 -3 -2 -2 -2 -1 -0 0 0 -0 -0 -1 -1 -0 -1 -1 -1 -2 -2 -2 -1 -0 -0 -0 -1 -1 -2 -2 -2 -2 -1 0 1 2 2 2 1 1 1 1 1 0 -0 -1 -1 -2 -2 -2 -2 -1 -1 -1 -1 -1 -1 -0 -0 -1 -1 -1 -1 -1
1 1 1 1 0 0 0 0 -0 0 0 0 0 -0 -0 -1 -1 -1 -2 -2 -1 -1 -2 -1 -0 -1 -2 -3 -3 -3 -2 -3 -3 -2 -2 -3 -3 -2 -2 -2 -3 -3 -3 -3 -3 -3 -1 -1 0 1 1 0 -0 -0 -0 -1 -1 -2 -2 -2 -1 -1 0 0 0 -0 -1 -2 -2 -3 -2 -1 -0 0 0 0 0 1 2 2 2 2 1 1 0 -1 -1 -2 -2 -2 -2 -1 -1 -1 -1 -1 -1 -1 -1 -1 -1 -1 -1
0 0 0 0 -0 -0 -0 -0 -0 -0 0 0 1 1 0 -0 -1 -1 -2 -2 -1 -1 -1 -1 -0 -0 -1 -1 -2 -3 -3 -3 -3 -3 -3 -3 -2 -2 -2 -2 -2 -2 -3 -3 -3 -2 -2 -1 -0 -0 -0 -0 -0 -0 -0 -0 -1 -1 -1 -1 -1 -0 0 0 0 -0 -1 -2 -2 -1 -0 -1 -1 -1 -1 -1 -0 0 1 2 2 2 2 1 1 0 -0 -1 -1 -1 -1 -1 -1 -1 -1 -1 -1 -1 -1 -1 -1 -1 -1
-1 -1 -1 -1 -1 -1 -1 -1 -1 -1 -1 -0 0 0 0 -0 -1 -1 -1 -2 -1 -1 -0 -1 -1 -0 -0 0 -0 -1 -2 -2 -3 -3 -3 -3 -2 -2 -2 -2 -2 -2 -2 -3 -2 -1 -1 -1 -1 -2 -2 -1 -1 -1 -1 -1 -0 -0 0 -1 -0 -0 0 -0 -0 -0 -1 -1 -1 -0 0 -0 -1 -2 -1 -1 -1 -0 1 2 2 1 1 1 1 1 0 0 -0 -0 -0 -0 -0 -0 -0 -0 -0 -0 -0 -0 -1 -1 -1
-1 -1 -1 -1 -1 -1 -1 -1 -2 -2 -1 -1 -1 -0 -0 -0 -1 -1 -1 -1 -2 -1 -1 -1 -1 -1 -1 -0 0 -0 -1 -2 -2 -3 -4 -3 -2 -1 -2 -2 -2 -1 -1 -2 -2 -1 -1 -2 -3 -3 -2 -2 -3 -3 -2 -1 -0 1 1 -0 -0 0 0 -0 -0 -0 -1 -1 -0 0 -0 -0 -1 -1 -2 -1 -0 0 1 1 1 1 1 1 1 1 1 1 0 0 0 0 0 0 0 0 -0 -0 -0 -0 -0 -0 -1
-1 -1 -1 -1 -1 -1 -1 -1 -2 -2 -2 -2 -1 -1 -1 -1 -1 -1 -1 -1 -2 -2 -2 -1 -2 -2 -2 -1 -1 -0 -0 -1 -2 -2 -3 -4 -3 -2 -1 -2 -3 -3 -1 -1 -1 -1 -0 -1 -2 -2 -1 -2 -4 -4 -3 -1 -0 -0 -0 -1 -1 -0 -0 -0 -1 -1 -1 -1 -0 -0 -1 -0 -1 -1 -2 -1 -1 -0 0 1 1 2 2 2 1 1 1 1 1 1 1 1 1 1 1 0 0 0 0 0 0 0 0
-1 -1 -1 -1 -1 -1 -1 -1 -1 -2 -2 -2 -1 -1 -1 -1 -1 -1 -2 -2 -2 -2 -2 -2 -1 -2 -3 -3 -2 -1 -1 -2 -2 -2 -2 -4 -4 -4 -2 -1 -2 -3 -2 -1 -0 -1 -1 -0 -0 0 0 -2 -4 -4 -3 -1 -0 -0 -1 -1 -1 -2 -1 -1 -1 -1 -1 -1 -1 -1 -1 -1 -1 -1 -1 -1 -1 -1 -0 0 1 1 2 2 2 2 2 2 2 2 2 1 1 1 1 1 1 1 1 1 1 1 1
-1 -1 -1 -1 -0 -0 -1 -1 -1 -1 -1 -1 -1 -1 -1 -0 -0 -1 -1 -2 -2 -2 -3 -3 -1 -0 -1 -3 -3 -2 -1 -2 -2 -2 -4 -4 -3 -4 -6 -4 -2 -2 -3 -2 -1 -2 -2 -1 1 2 1 -2 -3 -3 -1 1 1 0 -0 -0 -1 -2 -2 -2 -2 -2 -1 -1 -1 -2 -2 -3 -3 -2 -2 -2 -2 -1 -1 -1 -0 0 1 2 2 2 3 3 3 3 2 2 1 1 1 1 1 1 2 1 1 1 1
-0 -0 -1 -1 -0 -0 -0 -0 -1 -1 -1 -1 -1 -0 0 0 0 0 0 -0 -1 -2 -2 -4 -4 -2 1 -1 -2 -2 0 -2 -1 -1 -4 -6 -3 -1 -6 -8 -6 -4 -2 -2 -2 -3 -3 -2 -0 1 -1 -3 -2 0 1 2 2 2 1 2 1 1 0 -1 -2 -2 -1 -1 -0 -0 -1 -2 -3 -3 -3 -3 -3 -3 -3 -2 -2 -1 -1 -0 0 1 2 3 4 4 3 2 1 1 1 1 2 2 2 2 2 2 1
-1 -1 -1 -1 -1 -0 -0 0 0 -0 -1 -1 -1 -0 1 1 1 1 1 1 0 -1 -1 -2 -5 -5 -4 -1 -1 -1 2 -0 -1 -0 1 -5 -5 -2 -2 -4 -8 -10 -5 -3 -4 -4 3 -6 -8 -5 -2 -4 -2 1 1 2 2 2 2 4 4 4 4 2 1 -0 -1 -0 1 2 2 0 -1 -2 -2 -3 -3 -4 -4 -3 -3 -3 -3 -2 -1 -1 -0 1 3 4 4 3 2 1 1 1 1 1 1 1 2 1 1
-2 -2 -2 -2 -2 -1 -1 -0 -0 0 0 -0 -0 -0 0 1 1 1 1 1 1 1 0 -0 -1 -3 -7 -4 -2 -1 -1 1 0 -1 2 1 -2 -4 -5 0 -4 -9 -7 -4 -11 -12 8 4 -11 -20 -11 -1 -0 -3 -3 -2 -2 -1 2 3 4 4 5 4 4 2 1 0 1 2 3 2 2 1 0 -1 -2 -2 -3 -3 -3 -4 -4 -3 -2 -2 -1 -0 1 2 2 2 2 2 2 1 1 1 1 1 1 1 1
-4 -4 -4 -4 -4 -3 -2 -2 -1 -1 -0 -0 -0 0 0 1 1 1 1 1 1 1 1 1 1 1 -3 -4 -3 -1 -3 -1 -0 -0 -1 2 4 1 -8 -4 -2 -2 -5 1 -7 -15 -10 8 1 -17 -31 -7 -3 -7 -9 -3 -3 -4 -0 -0 0 1 2 2 2 3 3 1 1 2 3 3 3 4 4 2 1 0 -1 -2 -2 -3 -4 -3 -3 -2 -2 -1 -0 0 0 1 2 3 2 2 1 1 0 -0 -0 0 0
-4 -4 -4 -4 -4 -4 -4 -3 -2 -2 -1 -1 -0 -0 1 1 2 2 1 1 0 -0 -1 -1 0 2 2 -1 -1 -0 -0 -2 -1 -0 -1 -2 3 7 0 -6 -5 -3 -4 -0 -0 -4 -11 -4 1 0 -10 -3 -6 -13 -19 -9 -6 -6 -5 -3 -2 -2 -0 -1 -0 -0 -0 1 2 3 2 2 2 3 5 4 4 3 2 1 -0 -1 -2 -3 -3 -3 -2 -1 -1 -1 -1 0 1 2 3 3 2 1 0 -0 -0 -0 -0
-3 -3 -3 -3 -4 -4 -4 -3 -3 -2 -2 -2 -1 -1 -0 1 2 3 2 2 1 -0 -1 -2 -2 -1 3 2 0 -0 1 0 0 1 1 -4 -1 4 8 3 -1 -4 -5 -6 -4 -1 -0 -5 -6 -6 -9 13 10 -5 -15 -10 -10 -11 -11 -7 -4 -2 -2 -3 -3 -3 -3 -2 -0 1 1 2 2 1 2 4 5 5 5 4 3 1 -0 -1 -2 -2 -2 -1 -1 -2 -2 -1 0 2 3 3 2 2 1 1 0 -0 -1
-2 -3 -3 -3 -3 -4 -4 -4 -3 -3 -3 -2 -2 -2 -1 0 1 2 3 2 2 1 0 -1 -2 -2 -1 2 1 0 1 2 2 1 2 -1 -2 -0 6 7 6 3 1 -6 -6 -5 -5 3 1 -9 -26 6 14 8 -5 -4 -4 -6 -8 -9 -7 -4 -3 -4 -4 -4 -4 -3 -2 -2 -2 0 1 -0 -1 1 3 4 5 6 5 4 3 1 0 -0 -0 -0 -1 -2 -2 -2 -1 0 2 2 2 2 1 1 0 -0 -1
-2 -2 -2 -2 -2 -3 -3 -3 -3 -3 -3 -3 -3 -3 -2 -1 -0 1 1 1 1 1 1 -0 -1 -2 -2 -1 -0 0 -0 2 2 1 -1 -0 -1 -0 3 4 5 6 6 1 -1 -3 -8 -3 0 -2 -15 -11 0 12 15 -0 -5 -3 -1 -4 -5 -5 -4 -4 -4 -3 -2 -2 -2 -2 -2 -2 -1 -1 -2 -1 -0 1 2 4 5 6 5 3 2 1 1 1 0 -1 -1 -1 -1 -0 0 1 0 0 0 0 0 -0 -0
-3 -3 -2 -2 -2 -2 -2 -2 -2 -2 -2 -2 -2 -2 -2 -2 -1 -1 -1 -0 0 1 0 -0 -1 -1 -1 -2 -1 -1 -1 1 2 2 -1 -3 -2 -0 4 1 2 4 5 5 4 3 -0 -4 -6 -6 -1 -14 -15 -4 20 11 3 -3 -4 -3 -2 -3 -5 -5 -4 -3 -2 -1 0 0 -1 -2 -2 -1 -2 -3 -2 -1 -1 1 3 4 5 4 3 3 2 2 2 1 0 0 0 0 0 -0 -1 -1 -1 -1 -1 -1 -1
-2 -3 -3 -2 -2 -1 -2 -2 -2 -2 -2 -2 -2 -2 -1 -1 -1 -1 -1 -1 -0 0 0 -1 -1 -1 -1 -1 -1 -2 -2 -1 0 1 2 -2 -5 -4 2 -0 -1 -0 4 4 4 4 4 2 -0 -2 -3 -9 -15 -17 -8 9 13 8 -2 -3 -2 -2 -5 -7 -6 -4 -3 -2 0 2 1 -0 -0 -0 -1 -2 -2 -3 -3 -2 -0 1 2 3 3 3 3 3 2 2 2 2 2 2 1 0 -1 -2 -2 -2 -2 -2 -2
-1 -2 -2 -2 -2 -1 -1 -2 -1 -1 -1 -1 -1 -1 -0 -0 -0 -1 -1 -2 -1 -0 -0 -0 -1 -1 -1 -1 -1 -1 -1 -1 -1 -0 2 0 -3 -5 -2 -3 -4 -4 0 1 2 4 4 2 3 4 1 -5 -9 -14 -20 -8 5 11 2 3 2 -1 -6 -7 -6 -6 -7 -6 -4 -1 0 0 0 1 1 -0 -1 -2 -3 -3 -2 -1 -0 -0 0 1 1 2 2 2 2 2 3 3 2 1 -0 -1 -1 -2 -2 -3 -3
Height
3172 3172 3172 3172 3172 3172 3172 3172 3172 3172 3172 3172 3172 3172 3172 3172 3172 3172 3172 3172 3172 3172 3172 3172 3172 3172 3172 3173 3173 3173 3173 3173 3173 3173 3173 3173 3173 3173 3173 3173 3173 3173 3174 3174 3174 3174 3174 3174 3174 3174 3174 3174 3174 3174 3174 3174 3174 3175 3175 3175 3175 3175 3175 3175 3176 3176 3176 3176 3176 3176 3176 3176 3176 3176 3177 3177 3177 3177 3177 3177 3177 3177 3177 3177 3177 3177 3177 3177 3177 3177 3177 3177 3177 3177 3177 3177 3177 3178 3178 3178 3178 3178 3178
3172 3172 3172 3172 3172 3172 3172 3172 3172 3172 3172 3171 3171 3171 3171 3171 3171 3171 3171 3171 3172 3172 3172 3172 3172 3172 3172 3172 3172 3172 3172 3172 3173 3173 3173 3173 3173 3173 3173 3173 3173 3173 3173 3173 3173 3173 3173 3173 3173 3174 3174 3174 3174 3174 3174 3174 3174 3174 3174 3174 3175 3175 3175 3175 3175 3175 3176 3176 3176 3176 3176 3176 3176 3176 3176 3176 3176 3177 3177 3177 3177 3177 3177 3177 3177 3177 3177 3177 3177 3177 3177 3177 3177 3177 3177 3177 3177 3177 3177 3177 3177 3177 3177
3172 3172 3172 3172 3172 3172 3171 3171 3171 3171 3171 3171 3171 3171 3171 3171 3171 3171 3171 3171 3171 3171 3171 3171 3171 3171 3171 3172 3172 3172 3172 3172 3172 3172 3172 3172 3173 3173 3173 3173 3173 3173 3173 3173 3173 3173 3173 3173 3173 3173 3173 3173 3173 3174 3174 3174 3174 3174 3174 3174 3174 3174 3174 3175 3175 3175 3175 3175 3175 3175 3176 3176 3176 3176 3176 3176 3176 3176 3176 3176 3176 3176 3177 3177 3177 3177 3177 3177 3177 3177 3177 3177 3177 3177 3177 3177 3177 3177 3177 3177 3177 3177 3177
3171 3171 3171 3171 3171 3171 3171 3171 3171 3171 3171 3171 3170 3170 3170 3170 3170 3170 3170 3170 3170 3170 3170 3171 3171 3171 3171 3171 3171 3171 3171 3172 3172 3172 3172 3172 3172 3172 3172 3172 3172 3173 3173 3173 3173 3173 3173 3173 3173 3173 3173 3173 3173 3173 3173 3173 3174 3174 3174 3174 3174 3174 3174 3174 3174 3175 3175 3175 3175 3175 3175 3175 3175 3175 3175 3175 3176 3176 3176 3176 3176 3176 3176 3176 3176 3176 3176 3176 3176 3176 3176 3176 3176 3177 3177 3177 3177 3177 3177 3177 3177 3177 3177
3171 3171 3171 3171 3171 3171 3171 3171 3170 3170 3170 3170 3170 3170 3170 3170 3170 3170 3170 3170 3170 3170 3170 3170 3170 3170 3170 3171 3171 3171 3171 3171 3171 3171 3172 3172 3172 3172 3172 3172 3172 3172 3172 3172 3172 3173 3173 3173 3173 3173 3173 3173 3173 3173 3173 3173 3173 3173 3174 3174 3174 3174 3174 3174 3174 3174 3174 3174 3175 3175 3175 3175 3175 3175 3175 3175 3175 3175 3175 3175 3175 3176 3176 3176 3176 3176 3176 3176 3176 3176 3176 3176 3176 3176 3176 3176 3176 3176 3176 3176 3176 3176 3176
3171 3171 3170 3170 3170 3170 3170 3170 3170 3170 3170 3170 3170 3169 3169 3169 3169 3169 3169 3169 3169 3169 3169 3170 3170 3170 3170 3170 3170 3170 3170 3171 3171 3171 3171 3171 3171 3171 3172 3172 3172 3172 3172 3172 3172 3172 3172 3172 3172 3172 3172 3172 3173 3173 3173 3173 3173 3173 3173 3173 3173 3174 3174 3174 3174 3174 3174 3174 3174 3174 3174 3174 3174 3174 3174 3175 3175 3175 3175 3175 3175 3175 3175 3175 3175 3175 3175 3175 3175 3175 3175 3176 3176 3176 3176 3176 3176 3176 3176 3176 3176 3176 3176
3170 3170 3170 3170 3170 3170 3170 3170 3170 3170 3169 3169 3169 3169 3169 3169 3169 3169 3169 3169 3169 3169 3169 3169 3169 3169 3169 3170 3170 3170 3170 3170 3170 3170 3170 3171 3171 3171 3171 3171 3171 3172 3172 3172 3172 3172 3172 3172 3172 3172 3172 3172 3172 3172 3172 3172 3173 3173 3173 3173 3173 3173 3173 3173 3173 3174 3174 3174 3174 3174 3174 3174 3174 3174 3174 3174 3174 3174 3174 3174 3174 3174 3174 3174 3175 3175 3175 3175 3175 3175 3175 3175 3175 3175 3175 3175 3175 3175 3175 3175 3175 3175 3175
3170 3170 3170 3169 3169 3169 3169 3169 3169 3169 3169 3169 3169 3169 3168 3168 3168 3168 3168 3168 3168 3168 3168 3169 3169 3169 3169 3169 3169 3169 3169 3170 3170 3170 3170 3170 3170 3170 3170 3171 3171 3171 3171 3171 3172 3172 3172 3172 3172 3172 3172 3172 3172 3172 3172 3172 3172 3172 3172 3172 3172 3173 3173 3173 3173 3173 3173 3173 3173 3173 3173 3173 3173 3174 3174 3174 3174 3174 3174 3174 3174 3174 3174 3174 3174 3174 3174 3174 3174 3174 3174 3174 3174 3174 3174 3174 3174 3174 3174 3174 3174 3174 3174
3170 3169 3169 3169 3169 3169 3169 3169 3169 3169 3168 3168 3168 3168 3168 3168 3168 3168 3168 3168 3168 3168 3168 3168 3168 3168 3168 3168 3169 3169 3169 3169 3169 3169 3169 3169 3170 3170 3170 3170 3170 3170 3171 3171 3171 3171 3171 3171 3171 3171 3172 3172 3172 3172 3172 3172 3172 3172 3172 3172 3172 3172 3172 3172 3172 3172 3173 3173 3173 3173 3173 3173 3173 3173 3173 3173 3173 3173 3173 3173 3173 3173 3173 3173 3173 3173 3173 3173 3173 3173 3173 3174 3174 3174 3174 3174 3174 3174 3174 3174 3174 3174 3174
3169 3169 3169 3169 3168 3168 3168 3168 3168 3168 3168 3168 3168 3168 3167 3167 3167 3167 3167 3167 3167 3167 3167 3167 3167 3167 3168 3168 3168 3168 3168 3168 3169 3169 3169 3169 3169 3169 3169 3169 3170 3170 3170 3170 3170 3170 3170 3171 3171 3171 3171 3171 3171 3171 3171 3171 3171 3172 3172 3172 3172 3172 3172 3172 3172 3172 3172 3172 3172 3172 3172 3172 3172 3172 3172 3172 3172 3173 3173 3173 3173 3173 3172 3172 3172 3172 3172 3173 3173 3173 3173 3173 3173 3173 3173 3173 3173 3173 3173 3173 3173 3173 3173
3169 3169 3169 3168 3168 3168 3168 3167 3167 3167 3167 3167 3167 3167 3167 3167 3167 3167 3167 3167 3167 3167 3167 3167 3167 3167 3167 3167 3167 3167 3167 3168 3168 3168 3168 3168 3168 3169 3169 3169 3169 3169 3169 3169 3169 3170 3170 3170 3170 3170 3170 3170 3170 3170 3171 3171 3171 3171 3171 3171 3171 3171 3171 3171 3172 3172 3172 3172 3172 3172 3172 3172 3172 3172 3172 3172 3172 3172 3172 3172 3172 3172 3172 3172 3172 3172 3172 3172 3172 3172 3172 3172 3172 3172 3172 3172 3172 3172 3172 3172 3172 3172 3172
3169 3168 3168 3168 3168 3167 3167 3167 3167 3167 3167 3167 3167 3167 3167 3167 3166 3166 3166 3166 3166 3166 3166 3166 3166 3166 3166 3166 3166 3167 3167 3167 3167 3167 3167 3168 3168 3168 3168 3168 3168 3168 3168 3169 3169 3169 3169 3169 3169 3169 3169 3169 3170 3170 3170 3170 3170 3170 3170 3170 3170 3170 3171 3171 3171 3171 3171 3171 3171 3171 3171 3171 3171 3171 3171 3171 3171 3172 3172 3172 3172 3172 3172 3172 3172 3172 3171 3171 3171 3171 3172 3172 3172 3172 3172 3172 3172 3172 3172 3172 3172 3172 3172
3168 3168 3168 3167 3167 3167 3167 3167 3167 3166 3166 3166 3166 3166 3166 3166 3166 3166 3166 3166 3165 3165 3165 3165 3165 3165 3166 3166 3166 3166 3166 3166 3166 3167 3167 3167 3167 3167 3167 3167 3167 3168 3168 3168 3168 3168 3168 3168 3168 3169 3169 3169 3169 3169 3169 3169 3169 3169 3169 3169 3170 3170 3170 3170 3170 3170 3170 3170 3170 3170 3170 3170 3171 3171 3171 3171 3171 3171 3171 3171 3171 3171 3171 3171 3171 3171 3171 3171 3171 3171 3171 3171 3171 3171 3171 3171 3171 3171 3171 3171 3171 3171 3171
3168 3167 3167 3167 3167 3167 3166 3166 3166 3166 3166 3166 3165 3165 3165 3165 3165 3165 3165 3165 3165 3165 3165 3165 3165 3165 3165 3165 3165 3165 3165 3165 3165 3166 3166 3166 3166 3166 3167 3167 3167 3167 3167 3167 3167 3167 3167 3168 3168 3168 3168 3168 3168 3168 3168 3168 3168 3168 3168 3169 3169 3169 3169 3169 3169 3169 3169 3169 3169 3170 3170 3170 3170 3170 3170 3170 3170 3170 3170 3170 3170 3170 3170 3170 3170 3170 3170 3170 3170 3170 3170 3170 3170 3170 3170 3170 3170 3170 3170 3170 3170 3170 3170
3167 3167 3167 3166 3166 3166 3166 3166 3166 3165 3165 3165 3165 3165 3165 3164 3164 3164 3164 3164 3164 3164 3164 3164 3164 3164 3164 3164 3164 3164 3164 3164 3164 3164 3165 3165 3165 3165 3165 3166 3166 3166 3166 3166 3166 3167 3167 3167 3167 3167 3167 3167 3167 3167 3167 3167 3167 3167 3168 3168 3168 3168 3168 3168 3168 3168 3168 3168 3168 3168 3169 3169 3169 3169 3169 3169 3169 3169 3169 3169 3169 3169 3169 3169 3169 3169 3169 3169 3169 3169 3169 3169 3169 3169 3169 3169 3169 3168 3168 3168 3168 3168 3168
3167 3166 3166 3166 3166 3165 3165 3165 3165 3165 3165 3164 3164 3164 3164 3164 3164 3164 3164 3163 3163 3163 3163 3163 3163 3163 3163 3163 3163 3163 3163 3163 3163 3163 3163 3164 3164 3164 3164 3164 3165 3165 3165 3165 3165 3165 3166 3166 3166 3166 3166 3166 3166 3166 3167 3167 3167 3167 3167 3167 3167 3167 3167 3167 3167 3167 3167 3167 3167 3167 3167 3167 3168 3168 3168 3168 3168 3168 3168 3168 3168 3168 3168 3168 3168 3168 3168 3168 3168 3168 3168 3168 3168 3168 3167 3167 3167 3167 3167 3167 3167 3167 3167
3166 3166 3165 3165 3165 3165 3165 3164 3164 3164 3164 3164 3164 3163 3163 3163 3163 3163 3163 3163 3163 3163 3163 3162 3162 3162 3162 3162 3162 3162 3162 3162 3162 3162 3162 3163 3163 3163 3163 3163 3163 3164 3164 3164 3164 3164 3164 3165 3165 3165 3165 3165 3165 3165 3166 3166 3166 3166 3166 3166 3166 3166 3166 3166 3166 3166 3166 3166 3166 3166 3166 3167 3167 3167 3167 3167 3167 3167 3167 3167 3167 3167 3167 3167 3167 3167 3167 3167 3167 3167 3167 3167 3167 3167 3166 3166 3166 3166 3166 3166 3166 3166 3166
3165 3165 3165 3164 3164 3164 3164 3164 3163 3163 3163 3163 3163 3163 3163 3162 3162 3162 3162 3162 3162 3162 3162 3162 3162 3162 3162 3162 3162 3162 3162 3162 3162 3162 3162 3162 3162 3162 3162 3162 3162 3162 3163 3163 3163 3163 3163 3163 3164 3164 3164 3164 3164 3164 3164 3165 3165 3165 3165 3165 3165 3165 3165 3165 3165 3165 3165 3165 3165 3165 3165 3165 3165 3165 3165 3165 3165 3165 3165 3165 3165 3165 3165 3165 3165 3165 3165 3165 3165 3165 3165 3165 3165 3165 3165 3165 3165 3165 3165 3165 3165 3165 3165
3165 3164 3164 3163 3163 3163 3163 3163 3163 3163 3163 3162 3162 3162 3162 3162 3162 3162 3162 3162 3162 3162 3161 3161 3161 3161 3161 3161 3161 3161 3161 3161 3161 3161 3161 3161 3161 3161 3161 3161 3161 3162 3162 3162 3162 3162 3162 3162 3162 3162 3163 3163 3163 3163 3163 3163 3164 3164 3164 3164 3164 3164 3164 3164 3164 3164 3164 3164 3164 3164 3164 3164 3164 3164 3164 3164 3164 3164 3164 3164 3164 3164 3164 3164 3164 3164 3164 3164 3164 3164 3164 3164 3164 3164 3164 3164 3164 3163 3163 3163 3163 3163 3163
3163 3163 3163 3163 3162 3162 3162 3162 3162 3162 3162 3162 3162 3162 3161 3161 3161 3161 3161 3161 3161 3161 3161 3161 3161 3161 3161 3161 3161 3161 3161 3161 3161 3160 3160 3160 3160 3160 3160 3160 3160 3160 3161 3161 3161 3161 3161 3161 3161 3162 3162 3162 3162 3162 3162 3162 3162 3162 3163 3163 3163 3163 3163 3163 3163 3163 3163 3163 3163 3163 3163 3163 3163 3163 3163 3163 3163 3163 3163 3163 3162 3162 3162 3162 3162 3162 3162 3162 3162 3162 3162 3162 3162 3162 3162 3162 3162 3162 3162 3162 3162 3162 3162
3162 3162 3162 3162 3162 3162 3162 3161 3161 3161 3161 3161 3161 3161 3161 3161 3160 3160 3160 3160 3160 3160 3160 3160 3160 3160 3160 3160 3160 3160 3160 3160 3160 3160 3160 3160 3160 3160 3159 3159 3159 3159 3159 3159 3160 3160 3160 3160 3160 3160 3161 3161 3161 3161 3161 3161 3161 3162 3162 3162 3162 3162 3162 3162 3162 3162 3162 3162 3162 3162 3162 3162 3162 3162 3161 3161 3161 3161 3161 3161 3161 3161 3161 3161 3161 3161 3161 3161 3161 3161 3161 3161 3161 3161 3161 3161 3161 3161 3161 3160 3160 3160 3160
3161 3161 3161 3161 3161 3161 3161 3161 3160 3160 3160 3160 3160 3160 3160 3160 3160 3159 3159 3159 3159 3159 3159 3159 3159 3159 3159 3159 3159 3159 3159 3159 3159 3159 3159 3159 3159 3159 3159 3159 3158 3158 3158 3158 3158 3158 3159 3159 3159 3159 3159 3159 3160 3160 3160 3160 3160 3160 3160 3160 3160 3160 3160 3160 3160 3160 3160 3160 3160 3160 3160 3160 3160 3160 3160 3160 3160 3160 3160 3160 3160 3160 3159 3159 3159 3159 3159 3159 3159 3159 3159 3159 3159 3159 3159 3159 3159 3159 3159 3159 3159 3159 3158
3160 3160 3160 3160 3160 3160 3160 3160 3159 3159 3159 3159 3159 3159 3158 3158 3158 3158 3158 3158 3158 3158 3158 3158 3158 3158 3158 3158 3158 3158 3158 3158 3158 3158 3158 3158 3158 3158 3158 3158 3157 3157 3157 3157 3157 3157 3157 3157 3157 3158 3158 3158 3158 3158 3159 3159 3159 3159 3159 3159 3159 3159 3159 3159 3159 3159 3159 3159 3159 3159 3159 3159 3159 3159 3159 3159 3158 3158 3158 3158 3158 3158 3158 3158 3158 3158 3158 3157 3157 3157 3157 3157 3157 3157 3157 3157 3157 3157 3157 3157 3157 3157 3157
3159 3159 3159 3159 3159 3159 3159 3159 3158 3158 3158 3158 3158 3158 3158 3157 3157 3157 3157 3157 3157 3157 3157 3157 3157 3157 3157 3157 3157 3157 3157 3157 3157 3157 3157 3157 3157 3157 3157 3157 3157 3157 3156 3156 3156 3156 3156 3156 3156 3157 3157 3157 3157 3157 3157 3157 3157 3157 3157 3157 3157 3157 3158 3158 3157 3157 3157 3157 3157 3157 3157 3157 3157 3157 3157 3157 3157 3157 3157 3157 3157 3157 3156 3156 3156 3156 3156 3156 3156 3156 3156 3156 3155 3155 3155 3155 3155 3155 3155 3155 3155 3155 3155
3158 3158 3158 3158 3157 3157 3157 3157 3157 3157 3157 3157 3157 3157 3157 3157 3156 3156 3156 3156 3156 3157 3156 3156 3156 3156 3156 3156 3156 3156 3155 3155 3155 3155 3155 3155 3155 3155 3155 3156 3156 3155 3155 3155 3155 3155 3155 3155 3155 3155 3155 3155 3155 3156 3156 3156 3156 3156 3156 3156 3156 3156 3156 3156 3156 3156 3156 3156 3156 3156 3156 3156 3156 3156 3156 3156 3156 3155 3155 3155 3155 3155 3155 3154 3154 3154 3154 3154 3154 3154 3154 3154 3153 3153 3153 3153 3153 3153 3153 3153 3153 3153 3153
3157 3157 3157 3157 3157 3157 3157 3157 3157 3156 3156 3156 3156 3156 3156 3156 3155 3155 3155 3155 3155 3155 3155 3155 3155 3155 3155 3155 3155 3154 3154 3154 3154 3154 3154 3154 3154 3154 3154 3154 3154 3154 3154 3154 3154 3154 3154 3154 3154 3154 3154 3154 3154 3154 3154 3155 3155 3155 3155 3155 3155 3155 3155 3155 3155 3155 3155 3154 3154 3154 3154 3154 3154 3154 3154 3154 3154 3154 3153 3153 3153 3153 3153 3153 3152 3152 3152 3152 3152 3152 3152 3152 3152 3152 3151 3151 3151 3151 3151 3151 3151 3151 3151
3157 3156 3156 3156 3156 3156 3156 3156 3156 3155 3155 3155 3155 3155 3155 3154 3154 3154 3154 3154 3154 3154 3154 3154 3153 3153 3153 3153 3153 3153 3153 3153 3152 3152 3152 3152 3152 3152 3152 3152 3152 3152 3152 3152 3152 3152 3152 3152 3152 3152 3152 3152 3152 3153 3153 3153 3153 3153 3153 3153 3153 3153 3153 3153 3153 3153 3153 3153 3153 3152 3152 3152 3152 3152 3152 3152 3152 3152 3152 3152 3151 3151 3151 3151 3151 3150 3150 3150 3150 3150 3150 3150 3149 3149 3149 3149 3149 3149 3149 3149 3148 3148 3148
3156 3156 3155 3155 3155 3155 3155 3154 3154 3154 3154 3154 3154 3154 3154 3153 3153 3153 3153 3153 3152 3152 3152 3152 3152 3152 3152 3152 3152 3152 3152 3151 3151 3151 3151 3151 3151 3151 3151 3151 3151 3151 3150 3150 3150 3151 3151 3151 3151 3151 3151 3151 3151 3151 3151 3152 3152 3152 3152 3152 3152 3152 3152 3152 3152 3152 3152 3151 3151 3151 3151 3151 3151 3150 3150 3150 3150 3150 3149 3149 3149 3149 3149 3148 3148 3148 3148 3148 3148 3147 3147 3147 3147 3147 3147 3147 3147 3147 3147 3146 3146 3146 3146
3155 3154 3154 3154 3154 3153 3153 3153 3153 3153 3153 3153 3153 3153 3152 3152 3152 3152 3152 3152 3151 3151 3151 3151 3151 3150 3150 3150 3150 3150 3150 3150 3150 3150 3150 3150 3149 3149 3149 3149 3149 3149 3148 3148 3148 3148 3149 3149 3149 3149 3149 3149 3149 3149 3149 3149 3150 3150 3150 3150 3150 3150 3150 3150 3150 3150 3150 3150 3149 3149 3149 3149 3148 3148 3148 3148 3148 3147 3147 3147 3147 3147 3147 3146 3146 3146 3146 3146 3146 3145 3145 3145 3145 3145 3145 3144 3144 3144 3144 3144 3144 3144 3144
3154 3153 3153 3153 3153 3152 3152 3152 3152 3152 3152 3152 3152 3152 3151 3151 3151 3151 3151 3150 3150 3150 3150 3150 3149 3149 3149 3149 3149 3149 3149 3148 3148 3148 3148 3148 3148 3148 3148 3147 3147 3147 3147 3147 3146 3146 3147 3147 3147 3147 3147 3147 3147 3147 3147 3147 3147 3148 3148 3148 3148 3148 3148 3147 3147 3147 3147 3147 3147 3147 3147 3147 3146 3146 3146 3146 3145 3145 3145 3145 3144 3144 3144 3144 3143 3143 3143 3143 3143 3143 3142 3142 3142 3142 3142 3142 3142 3142 3142 3142 3141 3141 3141
3153 3153 3152 3152 3152 3152 3151 3151 3151 3151 3150 3150 3150 3150 3150 3150 3150 3149 3149 3149 3149 3149 3148 3148 3148 3148 3147 3147 3147 3147 3147 3147 3147 3147 3147 3147 3146 3146 3146 3146 3146 3145 3145 3145 3144 3144 3144 3144 3145 3145 3145 3145 3145 3144 3144 3144 3145 3145 3145 3146 3146 3146 3145 3145 3145 3145 3145 3145 3145 3145 3144 3144 3144 3143 3143 3143 3143 3142 3142 3142 3142 3142 3141 3141 3141 3141 3141 3140 3140 3140 3140 3140 3140 3140 3139 3139 3139 3139 3139 3139 3139 3139 3138
3152 3152 3152 3151 3151 3151 3150 3150 3150 3149 3149 3149 3149 3149 3149 3148 3148 3148 3148 3148 3147 3147 3147 3147 3146 3146 3146 3146 3146 3145 3145 3145 3145 3145 3145 3145 3144 3144 3144 3144 3144 3143 3143 3143 3142 3142 3142 3142 3142 3142 3142 3142 3142 3142 3142 3142 3142 3142 3142 3143 3143 3143 3143 3143 3142 3142 3142 3142 3142 3142 3142 3142 3141 3141 3141 3140 3140 3140 3140 3139 3139 3139 3139 3138 3138 3138 3138 3138 3137 3137 3137 3137 3137 3137 3137 3137 3137 3137 3136 3136 3136 3136 3136
3152 3151 3151 3150 3150 3149 3149 3149 3148 3148 3148 3147 3147 3147 3147 3147 3147 3146 3146 3146 3146 3146 3146 3145 3145 3144 3144 3144 3144 3144 3143 3143 3143 3143 3143 3143 3143 3142 3142 3142 3142 3142 3141 3141 3141 3141 3140 3140 3140 3140 3140 3140 3140 3139 3139 3139 3139 3139 3139 3140 3140 3140 3140 3140 3140 3139 3139 3139 3139 3139 3139 3138 3138 3138 3138 3137 3137 3137 3137 3137 3136 3136 3136 3136 3136 3135 3135 3135 3135 3135 3134 3134 3134 3134 3134 3134 3134 3134 3134 3133 3133 3133 3133
3150 3150 3150 3149 3149 3148 3148 3148 3147 3147 3147 3146 3146 3146 3146 3146 3145 3145 3145 3144 3144 3144 3144 3144 3143 3143 3142 3142 3142 3142 3142 3142 3141 3141 3141 3141 3141 3141 3140 3140 3139 3139 3139 3139 3139 3138 3138 3138 3138 3138 3138 3137 3137 3137 3137 3136 3136 3136 3136 3137 3137 3137 3137 3137 3137 3137 3136 3136 3136 3136 3135 3135 3135 3135 3135 3135 3134 3134 3134 3134 3133 3133 3133 3133 3132 3132 3132 3132 3132 3132 3132 3132 3131 3131 3131 3131 3131 3131 3131 3131 3131 3131 3131
3149 3148 3148 3148 3147 3147 3147 3147 3146 3146 3145 3145 3145 3144 3144 3144 3144 3143 3143 3143 3143 3142 3142 3142 3142 3141 3141 3141 3140 3140 3140 3139 3139 3139 3139 3139 3139 3138 3138 3138 3137 3137 3137 3137 3136 3136 3136 3136 3136 3136 3136 3135 3135 3135 3134 3133 3133 3133 3133 3133 3134 3134 3134 3134 3134 3134 3133 3133 3133 3132 3132 3132 3132 3132 3132 3132 3132 3131 3131 3131 3131 3130 3130 3130 3130 3129 3129 3129 3129 3129 3129 3128 3128 3128 3128 3128 3128 3127 3127 3127 3127 3127 3127
3147 3147 3147 3147 3146 3146 3146 3145 3145 3144 3144 3143 3143 3143 3143 3142 3142 3142 3142 3141 3141 3141 3140 3140 3140 3139 3139 3139 3138 3138 3138 3137 3137 3137 3137 3137 3136 3136 3136 3136 3135 3135 3134 3134 3134 3134 3133 3133 3133 3133 3133 3133 3132 3132 3132 3131 3130 3130 3130 3130 3130 3130 3130 3131 3131 3131 3130 3130 3130 3129 3129 3129 3129 3128 3128 3128 3128 3128 3128 3128 3127 3127 3127 3127 3127 3127 3126 3126 3126 3126 3126 3125 3125 3125 3125 3125 3125 3124 3124 3124 3124 3124 3124
3146 3146 3145 3145 3144 3144 3144 3143 3143 3143 3142 3142 3141 3141 3141 3141 3140 3140 3140 3140 3139 3139 3138 3138 3138 3137 3137 3137 3137 3136 3136 3136 3135 3135 3134 3134 3134 3133 3133 3133 3132 3132 3132 3132 3132 3131 3131 3131 3131 3130 3130 3130 3129 3129 3128 3128 3127 3127 3127 3127 3127 3127 3127 3127 3127 3127 3127 3127 3127 3126 3126 3126 3126 3125 3125 3125 3125 3125 3125 3125 3124 3124 3124 3124 3124 3123 3123 3123 3123 3123 3122 3122 3122 3122 3122 3122 3121 3121 3121 3121 3121 3121 3121
3145 3144 3143 3143 3143 3142 3142 3142 3141 3141 3140 3140 3139 3139 3138 3138 3138 3138 3138 3138 3137 3137 3136 3136 3136 3135 3135 3134 3134 3134 3134 3133 3133 3132 3132 3132 3131 3131 3131 3130 3130 3129 3129 3129 3128 3128 3128 3128 3128 3127 3127 3127 3126 3126 3125 3125 3124 3124 3123 3123 3123 3123 3123 3123 3123 3124 3123 3123 3123 3123 3123 3123 3122 3122 3122 3122 3121 3121 3121 3121 3121 3121 3121 3121 3121 3120 3120 3120 3120 3120 3119 3119 3119 3119 3118 3118 3118 3118 3118 3117 3117 3117 3117
3143 3142 3142 3142 3141 3141 3140 3140 3139 3139 3138 3137 3137 3137 3136 3136 3136 3136 3136 3135 3135 3134 3134 3133 3133 3132 3132 3132 3132 3131 3131 3131 3130 3130 3130 3129 3128 3128 3127 3127 3127 3126 3126 3126 3125 3125 3125 3125 3125 3124 3124 3123 3123 3122 3122 3122 3121 3121 3120 3120 3119 3119 3119 3120 3120 3120 3120 3120 3120 3120 3120 3120 3119 3119 3119 3118 3118 3117 3117 3117 3117 3117 3117 3117 3117 3117 3117 3117 3117 3117 3116 3116 3116 3116 3115 3115 3115 3115 3114 3114 3114 3114 3114
3141 3141 3140 3140 3139 3139 3138 3137 3137 3136 3135 3135 3135 3134 3134 3133 3133 3133 3133 3132 3132 3132 3131 3131 3130 3130 3129 3129 3128 3128 3128 3128 3127 3127 3127 3126 3126 3125 3125 3124 3123 3123 3123 3122 3122 3122 3122 3122 3122 3121 3121 3120 3120 3119 3119 3119 3118 3118 3117 3117 3116 3116 3116 3116 3116 3116 3116 3117 3117 3117 3117 3117 3116 3116 3116 3115 3115 3114 3114 3114 3114 3113 3113 3113 3114 3114 3114 3114 3113 3113 3113 3113 3113 3112 3112 3112 3112 3112 3111 3111 3111 3111 3111
3140 3139 3138 3138 3137 3137 3136 3136 3135 3134 3133 3132 3132 3132 3131 3131 3131 3130 3130 3129 3129 3128 3128 3128 3127 3127 3127 3126 3126 3125 3125 3125 3124 3124 3124 3123 3123 3122 3122 3121 3121 3120 3120 3120 3119 3119 3119 3119 3119 3118 3118 3117 3117 3116 3116 3116 3116 3115 3114 3114 3113 3113 3113 3112 3113 3113 3113 3113 3113 3113 3113 3113 3113 3113 3112 3112 3112 3112 3111 3111 3110 3110 3110 3110 3110 3110 3110 3110 3110 3110 3110 3109 3109 3109 3109 3109 3108 3108 3108 3108 3108 3107 3107
3138 3138 3137 3137 3136 3135 3135 3134 3133 3132 3132 3131 3130 3130 3129 3129 3128 3128 3127 3127 3126 3126 3126 3125 3125 3124 3124 3123 3123 3122 3122 3122 3122 3121 3121 3120 3120 3119 3119 3118 3118 3117 3117 3117 3117 3117 3116 3116 3116 3116 3115 3115 3114 3113 3113 3113 3112 3112 3111 3111 3110 3110 3110 3110 3110 3110 3109 3109 3109 3109 3109 3109 3109 3109 3109 3109 3109 3108 3108 3108 3107 3107 3107 3107 3106 3106 3106 3106 3106 3106 3106 3106 3106 3106 3105 3105 3105 3105 3105 3104 3104 3104 3104
3138 3137 3136 3136 3135 3134 3133 3132 3132 3131 3130 3130 3129 3128 3128 3127 3127 3126 3125 3125 3124 3124 3123 3123 3122 3122 3121 3121 3121 3120 3120 3119 3119 3118 3118 3117 3117 3117 3116 3116 3115 3115 3114 3114 3114 3113 3113 3113 3113 3113 3112 3112 3111 3111 3110 3110 3109 3109 3108 3107 3107 3107 3107 3107 3107 3107 3106 3106 3105 3105 3105 3105 3105 3106 3106 3106 3105 3105 3105 3105 3104 3104 3104 3103 3103 3103 3102 3102 3102 3102 3102 3102 3102 3102 3102 3102 3102 3101 3101 3101 3101 3101 3101
3137 3136 3135 3134 3134 3133 3132 3131 3131 3130 3129 3129 3128 3127 3127 3126 3125 3124 3123 3123 3122 3122 3122 3121 3120 3120 3119 3119 3118 3118 3117 3117 3116 3116 3115 3115 3114 3114 3113 3113 3112 3112 3111 3111 3111 3110 3110 3110 3110 3110 3109 3109 3108 3108 3107 3107 3106 3105 3105 3104 3104 3104 3104 3104 3104 3103 3103 3102 3102 3102 3102 3102 3102 3102 3102 3102 3102 3102 3102 3101 3101 3101 3101 3100 3100 3099 3099 3099 3098 3098 3098 3098 3098 3098 3098 3098 3098 3098 3097 3097 3097 3097 3097
3135 3134 3134 3133 3132 3132 3131 3130 3129 3128 3128 3127 3127 3126 3125 3124 3123 3122 3122 3121 3120 3120 3120 3119 3118 3117 3117 3117 3116 3115 3115 3114 3113 3113 3112 3112 3112 3111 3111 3110 3110 3109 3108 3108 3107 3107 3107 3107 3107 3106 3106 3105 3105 3104 3104 3103 3103 3102 3102 3102 3101 3101 3101 3101 3100 3100 3099 3099 3099 3098 3098 3098 3098 3098 3097 3097 3097 3097 3097 3097 3097 3097 3097 3097 3096 3096 3095 3095 3095 3094 3094 3094 3094 3094 3094 3094 3094 3094 3094 3094 3094 3093 3093
3134 3133 3132 3132 3131 3130 3129 3128 3128 3127 3127 3126 3125 3125 3124 3123 3122 3121 3120 3119 3119 3118 3117 3117 3117 3116 3115 3115 3114 3113 3112 3112 3111 3110 3110 3109 3109 3108 3108 3107 3107 3106 3105 3105 3105 3104 3104 3103 3103 3102 3102 3102 3101 3100 3100 3100 3100 3099 3099 3098 3098 3098 3097 3097 3097 3097 3096 3096 3095 3095 3095 3094 3094 3094 3093 3093 3093 3093 3093 3094 3093 3093 3093 3093 3092 3092 3092 3092 3091 3091 3091 3091 3090 3090 3090 3090 3090 3090 3090 3090 3090 3090 3090
3132 3132 3131 3130 3130 3129 3128 3127 3126 3126 3125 3124 3124 3123 3122 3122 3121 3120 3119 3118 3117 3116 3116 3115 3114 3114 3113 3112 3112 3111 3111 3110 3109 3108 3107 3107 3106 3106 3105 3104 3104 3103 3102 3102 3102 3101 3101 3100 3099 3099 3098 3098 3097 3097 3096 3096 3096 3096 3096 3095 3095 3095 3094 3094 3093 3093 3092 3092 3092 3092 3091 3091 3091 3090 3090 3090 3089 3089 3089 3089 3089 3089 3089 3089 3089 3088 3088 3087 3087 3087 3087 3087 3087 3087 3087 3087 3087 3086 3086 3086 3086 3086 3086
3131 3130 3130 3129 3128 3127 3127 3126 3125 3124 3123 3123 3122 3122 3121 3120 3119 3118 3117 3116 3115 3114 3114 3113 3112 3112 3111 3110 3110 3109 3108 3107 3106 3106 3105 3104 3104 3103 3102 3102 3101 3100 3100 3100 3099 3099 3098 3097 3097 3096 3096 3095 3094 3093 3093 3093 3093 3093 3093 3092 3092 3091 3091 3091 3090 3090 3089 3089 3088 3088 3088 3087 3087 3087 3086 3086 3086 3085 3085 3085 3085 3085 3085 3085 3085 3084 3084 3084 3083 3083 3083 3083 3083 3083 3082 3082 3082 3082 3082 3082 3082 3082 3082
3130 3129 3128 3127 3127 3126 3125 3124 3123 3122 3122 3121 3121 3120 3119 3118 3117 3116 3115 3114 3113 3112 3112 3111 3110 3110 3109 3108 3107 3107 3106 3105 3104 3103 3102 3102 3101 3101 3100 3099 3098 3097 3097 3097 3096 3096 3096 3095 3095 3094 3093 3092 3091 3090 3090 3090 3090 3090 3090 3089 3089 3088 3088 3087 3087 3087 3086 3086 3085 3085 3084 3084 3083 3083 3082 3082 3082 3082 3081 3081 3081 3081 3081 3081 3081 3081 3080 3080 3080 3079 3079 3079 3079 3079 3078 3078 3078 3078 3078 3078 3078 3078 3078
3128 3127 3127 3126 3125 3124 3124 3123 3122 3121 3120 3119 3119 3118 3117 3117 3116 3115 3114 3112 3111 3110 3109 3109 3108 3107 3107 3106 3106 3105 3103 3102 3102 3101 3100 3099 3099 3098 3097 3096 3095 3095 3094 3094 3093 3092 3092 3092 3092 3092 3090 3089 3088 3087 3088 3088 3088 3087 3087 3087 3086 3086 3085 3084 3084 3083 3083 3082 3082 3082 3081 3081 3080 3080 3079 3078 3078 3078 3077 3077 3077 3077 3077 3077 3077 3077 3077 3076 3076 3076 3076 3075 3075 3075 3075 3074 3074 3074 3075 3075 3075 3074 3074
3127 3126 3125 3124 3123 3123 3122 3121 3120 3119 3118 3117 3117 3116 3116 3115 3114 3113 3112 3111 3109 3108 3107 3106 3105 3105 3104 3104 3103 3102 3102 3100 3099 3098 3097 3097 3096 3095 3094 3093 3092 3092 3092 3091 3090 3089 3088 3088 3088 3087 3086 3085 3085 3085 3085 3085 3085 3085 3084 3084 3084 3083 3083 3082 3081 3080 3080 3080 3079 3079 3078 3078 3077 3076 3076 3075 3075 3074 3074 3073 3073 3073 3073 3072 3072 3072 3072 3072 3072 3072 3072 3072 3071 3071 3071 3071 3071 3071 3071 3071 3071 3071 3071
3125 3124 3123 3122 3122 3121 3120 3119 3118 3117 3116 3116 3115 3114 3113 3113 3112 3111 3110 3109 3107 3106 3105 3104 3103 3102 3101 3101 3100 3100 3099 3098 3097 3096 3095 3094 3093 3092 3091 3090 3089 3088 3088 3087 3087 3086 3086 3084 3083 3082 3081 3081 3081 3082 3082 3081 3081 3081 3081 3081 3081 3081 3080 3079 3078 3077 3077 3077 3077 3076 3076 3075 3074 3074 3073 3072 3072 3071 3070 3070 3069 3069 3069 3068 3068 3068 3068 3068 3069 3069 3068 3068 3067 3067 3067 3067 3067 3067 3067 3067 3067 3067 3067
3123 3122 3121 3120 3119 3118 3117 3117 3116 3115 3114 3113 3112 3112 3111 3110 3109 3108 3107 3106 3105 3104 3103 3102 3101 3099 3098 3097 3097 3097 3096 3095 3094 3093 3092 3092 3091 3090 3088 3087 3086 3085 3084 3083 3082 3083 3084 3082 3078 3076 3075 3076 3077 3077 3077 3077 3077 3077 3077 3077 3077 3077 3076 3076 3075 3074 3073 3073 3073 3073 3072 3072 3072 3071 3070 3069 3069 3068 3067 3067 3066 3065 3065 3065 3064 3064 3064 3064 3065 3065 3064 3064 3064 3064 3063 3063 3063 3063 3063 3063 3063 3063 3063
3121 3120 3119 3118 3117 3116 3115 3114 3113 3112 3112 3111 3110 3109 3109 3108 3107 3106 3104 3103 3102 3101 3100 3099 3098 3097 3096 3095 3094 3093 3092 3092 3091 3090 3089 3089 3088 3087 3086 3085 3083 3082 3080 3080 3079 3078 3079 3078 3076 3072 3070 3071 3071 3071 3071 3071 3071 3072 3072 3072 3072 3072 3072 3071 3071 3070 3069 3069 3069 3068 3068 3068 3068 3067 3067 3066 3066 3065 3064 3063 3062 3062 3061 3061 3061 3060 3060 3060 3060 3060 3060 3060 3060 3060 3060 3060 3059 3059 3059 3059 3059 3059 3059
3119 3118 3117 3115 3114 3113 3112 3112 3111 3110 3109 3108 3107 3107 3106 3105 3104 3103 3102 3101 3099 3098 3097 3096 3095 3094 3093 3092 3092 3091 3089 3088 3087 3086 3085 3085 3084 3084 3083 3082 3081 3079 3077 3076 3075 3075 3074 3073 3072 3071 3070 3068 3067 3065 3064 3064 3065 3065 3066 3066 3067 3067 3067 3066 3066 3065 3065 3064 3064 3064 3063 3063 3063 3063 3063 3062 3062 3061 3061 3060 3059 3058 3057 3057 3056 3056 3056 3056 3056 3056 3056 3056 3056 3056 3056 3056 3056 3055 3055 3055 3054 3054 3054
3117 3116 3114 3113 3112 3111 3110 3109 3108 3107 3106 3105 3105 3104 3103 3102 3102 3101 3099 3098 3097 3095 3093 3092 3091 3090 3090 3089 3088 3088 3087 3086 3084 3083 3082 3080 3080 3080 3080 3079 3078 3077 3075 3073 3072 3071 3070 3068 3067 3067 3067 3067 3065 3062 3062 3060 3059 3058 3059 3059 3060 3061 3061 3061 3060 3060 3060 3059 3059 3059 3058 3058 3058 3058 3058 3057 3057 3057 3057 3056 3055 3054 3053 3053 3052 3052 3052 3052 3052 3051 3051 3052 3052 3052 3052 3052 3052 3051 3051 3051 3050 3050 3050
3115 3114 3112 3111 3110 3109 3108 3107 3106 3105 3104 3103 3102 3101 3100 3100 3099 3098 3097 3095 3094 3092 3091 3089 3088 3087 3086 3085 3085 3084 3084 3083 3082 3080 3078 3077 3076 3076 3076 3075 3074 3073 3072 3071 3069 3068 3066 3065 3063 3062 3061 3062 3062 3060 3059 3058 3057 3055 3054 3053 3054 3054 3055 3055 3055 3055 3054 3054 3054 3054 3053 3053 3053 3052 3052 3052 3052 3052 3052 3052 3051 3050 3050 3049 3048 3047 3047 3047 3047 3046 3046 3047 3047 3047 3047 3047 3047 3047 3047 3046 3046 3045 3045
3113 3112 3111 3109 3108 3107 3106 3105 3104 3103 3102 3101 3099 3098 3098 3097 3096 3095 3094 3093 3092 3090 3088 3087 3085 3084 3083 3082 3081 3081 3080 3080 3079 3077 3075 3073 3072 3072 3072 3071 3070 3070 3068 3067 3066 3064 3063 3062 3060 3058 3056 3056 3057 3057 3056 3054 3053 3052 3051 3050 3049 3048 3048 3049 3049 3049 3049 3049 3049 3049 3048 3048 3048 3047 3047 3047 3047 3046 3047 3047 3046 3046 3045 3045 3044 3043 3043 3042 3042 3042 3042 3042 3042 3042 3042 3042 3042 3042 3042 3041 3041 3040 3040
3111 3110 3109 3107 3106 3105 3104 3103 3102 3101 3099 3098 3097 3096 3095 3095 3094 3092 3091 3090 3089 3087 3086 3084 3083 3082 3081 3079 3078 3077 3077 3077 3076 3074 3072 3070 3069 3068 3067 3067 3066 3066 3065 3064 3062 3061 3060 3058 3057 3055 3053 3051 3051 3052 3052 3050 3049 3048 3047 3046 3045 3044 3043 3043 3043 3043 3044 3044 3044 3044 3043 3043 3043 3042 3042 3041 3041 3041 3041 3041 3041 3041 3041 3040 3040 3039 3039 3038 3038 3037 3037 3037 3037 3037 3037 3037 3037 3036 3036 3036 3036 3035 3035
3109 3108 3107 3105 3104 3103 3102 3101 3099 3098 3097 3096 3095 3094 3093 3092 3091 3090 3088 3087 3086 3085 3083 3082 3081 3079 3078 3077 3076 3075 3074 3073 3073 3072 3070 3068 3067 3065 3064 3062 3062 3062 3061 3060 3059 3058 3057 3055 3054 3052 3051 3048 3046 3045 3046 3047 3046 3045 3043 3043 3042 3040 3038 3037 3037 3037 3037 3038 3038 3039 3038 3038 3038 3037 3037 3036 3036 3036 3035 3035 3035 3035 3036 3035 3035 3035 3034 3034 3033 3033 3033 3032 3032 3032 3032 3032 3032 3031 3031 3031 3030 3030 3030
3107 3106 3105 3103 3102 3101 3100 3098 3097 3096 3095 3094 3092 3092 3091 3090 3089 3087 3086 3085 3083 3082 3081 3079 3078 3077 3076 3074 3073 3072 3071 3071 3070 3069 3067 3066 3065 3063 3061 3059 3058 3057 3057 3056 3056 3055 3053 3052 3051 3050 3048 3046 3044 3042 3040 3041 3042 3041 3040 3039 3038 3037 3035 3034 3033 3032 3031 3031 3032 3032 3033 3033 3033 3033 3032 3032 3031 3031 3030 3030 3030 3030 3030 3030 3030 3030 3030 3029 3029 3029 3028 3028 3028 3028 3027 3027 3027 3027 3026 3026 3025 3025 3025